Location: Hermaringen
(48.5952°N, 10.2585°E)
Time: 14:42:35
(UTC+00:00)

Vanguard 1 Rocket - All Passes

Search period start: 10 February 2026 00:00
Search period end: 20 February 2026 00:00
Orbit: 652 x 4215 km, 34.3° (Epoch: 8 February)

Date Brightness Start Highest point End Pass type
(mag) Time Alt. Az. Time Alt. Az. Time Alt. Az.
10 Feb - 12:01:03 10° SSE 12:08:43 18° SE 12:19:14 10° E daylight
10 Feb - 14:20:13 10° SW 14:33:27 43° SSE 14:54:51 10° E daylight
10 Feb - 16:44:22 10° WSW 17:02:02 54° S 17:26:44 10° ESE visible
10 Feb - 19:11:34 10° W 19:32:05 44° SSW 19:54:29 10° SE visible
10 Feb - 21:43:56 10° W 21:59:57 21° SW 22:15:01 10° S visible
11 Feb - 13:09:26 10° SSW 13:20:15 33° SE 13:37:38 10° E daylight
11 Feb - 15:31:55 10° WSW 15:47:05 52° S 16:10:52 10° ESE daylight
11 Feb - 17:57:37 10° W 18:16:47 50° SSW 18:40:49 10° SE visible
11 Feb - 20:26:54 10° W 20:45:56 31° SW 21:05:08 10° SSE visible
12 Feb - 11:59:55 10° S 12:07:56 21° SE 12:19:39 10° E daylight
12 Feb - 14:20:10 10° SW 14:32:56 45° SSE 14:54:17 10° E daylight
12 Feb - 16:44:30 10° WSW 17:01:31 53° S 17:25:58 10° ESE visible
12 Feb - 19:11:47 10° W 19:31:14 40° SSW 19:53:12 10° SSE visible
12 Feb - 21:45:37 10° W 21:58:46 17° SW 22:11:36 10° SSW visible
13 Feb - 13:09:10 10° SSW 13:19:40 36° SSE 13:37:14 10° E daylight
13 Feb - 15:32:03 10° WSW 15:46:40 52° S 16:10:10 10° ESE daylight
13 Feb - 17:57:49 10° W 18:16:09 46° SSW 18:39:46 10° SE visible
13 Feb - 20:27:33 10° W 20:44:54 26° SW 21:02:59 10° S visible
14 Feb - 11:59:12 10° S 12:07:17 24° SE 12:19:43 10° E daylight
14 Feb - 14:20:14 10° SW 14:32:32 47° SSE 14:53:39 10° E daylight
14 Feb - 16:44:42 10° WSW 17:01:03 51° S 17:25:04 10° SE visible
14 Feb - 19:12:08 10° W 19:30:24 35° SSW 19:51:35 10° SSE visible
14 Feb - 21:49:01 10° WSW 21:57:36 13° SW 22:06:13 10° SW visible
15 Feb - 10:51:38 10° SSE 10:55:39 13° SE 11:00:33 10° ESE daylight
15 Feb - 13:09:05 10° SW 13:19:13 38° SSE 13:36:45 10° E daylight
15 Feb - 15:32:16 10° WSW 15:46:19 51° S 16:09:21 10° ESE daylight
15 Feb - 17:58:07 10° W 18:15:31 42° SSW 18:38:28 10° SE visible
15 Feb - 20:28:41 10° W 20:43:53 22° SW 21:00:08 10° S visible
16 Feb - 11:58:47 10° SSW 12:06:47 27° SE 12:19:37 10° E daylight
16 Feb - 14:20:25 10° WSW 14:32:13 48° SSE 14:52:57 10° ESE daylight
16 Feb - 16:45:00 10° W 17:00:37 47° SSW 17:23:59 10° SE visible
16 Feb - 19:12:44 10° W 19:29:35 30° SW 19:49:33 10° SSE visible
17 Feb - 10:50:04 10° SSE 10:55:04 15° SE 11:01:42 10° E daylight
17 Feb - 13:09:09 10° SW 13:18:55 40° SSE 13:36:12 10° E daylight
17 Feb - 15:32:33 10° WSW 15:46:02 49° S 16:08:26 10° ESE daylight
17 Feb - 17:58:32 10° W 18:14:55 38° SSW 18:36:52 10° SSE visible
17 Feb - 20:30:36 10° W 20:42:56 17° SW 20:56:13 10° SSW visible
18 Feb - 11:58:36 10° SSW 12:06:24 30° SE 12:19:23 10° E daylight
18 Feb - 14:20:41 10° WSW 14:32:00 48° S 14:52:11 10° ESE daylight
18 Feb - 16:45:22 10° W 17:00:13 44° SSW 17:22:42 10° SE visible
18 Feb - 19:13:39 10° W 19:28:49 25° SW 19:46:58 10° S visible
19 Feb - 10:49:12 10° S 10:54:37 18° SE 11:02:14 10° E daylight
19 Feb - 13:09:20 10° SW 13:18:43 41° SSE 13:35:37 10° E daylight
19 Feb - 15:32:55 10° WSW 15:45:47 47° S 16:07:23 10° SE daylight
19 Feb - 17:59:08 10° W 18:14:22 33° SSW 18:34:54 10° SSE visible
19 Feb - 20:34:28 10° WSW 20:42:02 12° SW 20:50:06 10° SSW visible
